MOLNIYA 1-80 1 21118U 91012A 12136.40042921 -.00001277 00000-0 10000-3 0 1142 2 21118 61.7070 114.5703 7349346 267.8532 14.8659 2.00983919155674 MOLNIYA 3-40 1 21196U 91022A 12135.79756801 -.00001528 00000-0 -37026-3 0 5869 2 21196 61.5303 95.0430 7397490 271.1408 13.4852 2.00422808154966 MOLNIYA 1-81 1 21426U 91043A 12134.93258157 .00000271 00000-0 10000-3 0 7153 2 21426 62.0994 93.1547 7271555 275.2360 13.1961 2.00621677153206 MOLNIYA 3-41 1 21706U 91065A 12133.18264343 -.00000154 00000-0 10887-2 0 9827 2 21706 63.3507 245.9017 7237058 285.2641 10.8364 2.04340978151578 MOLNIYA 3-42 1 22178U 92067A 12136.63189860 .00010282 -84627-7 37509-3 0 1984 2 22178 62.2474 27.0162 7512199 277.7128 10.8694 2.03521470143531 MOLNIYA 1-86 1 22671U 93035A 12136.80612939 .00092996 39892-6 53315-3 0 655 2 22671 62.6602 240.6262 5388317 289.0573 265.7388 5.14195820146491 MOLNIYA 3-45 1 22729U 93049A 12135.09122229 .00001583 00000-0 10000-3 0 3799 2 22729 61.7815 127.6260 7364546 265.1520 15.6581 2.00258177137551 MOLNIYA 1-87 1 22949U 93079A 12136.67506507 -.00000648 00000-0 47532-2 0 8916 2 22949 62.0265 257.0523 7349824 256.5069 19.2689 2.00730731134863 MOLNIYA 1-88 1 23420U 94081A 12134.88617523 .00001852 00000-0 42850-3 0 4166 2 23420 62.1217 68.2668 7490540 276.6419 11.3277 2.02660544127877 MOLNIYA 3-47 1 23642U 95042A 12126.35428025 .00000498 00000-0 -30316-4 0 9313 2 23642 61.9962 234.0064 7319313 261.3749 17.5144 2.00624887122677 MOLNIYA 1-90 1 24960U 97054A 12133.23784261 .00000984 00000-0 82432-3 0 3581 2 24960 62.2922 275.0676 7448001 258.9390 17.2534 2.04500906107342 MOLNIYA 1-91 1 25485U 98054A 12135.27150824 .00000091 00000-0 10000-3 0 5788 2 25485 63.5125 51.7547 7327485 253.9850 349.7701 2.00629636 99817 MOLNIYA 3-50 1 25847U 99036A 12135.10523647 .00000328 00000-0 10000-3 0 2601 2 25847 63.4645 153.1894 6889663 259.2389 22.5734 2.00639437 94157 MOLNIYA 3-51 1 26867U 01030A 12136.93618802 .00000640 00000-0 00000+0 0 9183 2 26867 63.9059 72.2144 7363301 255.5550 52.9017 2.00657047 79295 MOLNIYA 1-92 1 27707U 03011A 12136.27958035 -.00000339 00000-0 10000-3 0 1981 2 27707 64.4977 78.7286 7403860 246.3912 325.3719 2.00585232 66824 MOLNIYA 3-53 1 27834U 03029A 12136.33761183 .00000059 00000-0 00000+0 0 2304 2 27834 64.5395 79.1610 7393883 246.7190 351.2250 2.00630839 65248 MOLNIYA 1-93 1 28163U 04005A 12137.24409160 .00000105 00000-0 10000-3 0 8370 2 28163 64.7674 168.6715 6916043 257.7583 107.5356 2.00591101 60389